Other Surface Observations
Issued by NWS Charleston, SC

Home | Current Version | Previous Version | Text Only | Print | Product List | Glossary On
Versions: 1 2 3 4 5 6 7 8 9 10 11 12 13 14 15 16 17 18 19 20 21 22 23 24 25 26 27 28 29 30 31 32 33 34 35 36 37 38 39 40 41 42 43 44 45 46 47 48 49 50
812
SXUS52 KCHS 141728
OSOCHS

MARINE OBSERVATIONS
NATIONAL WEATHER SERVICE CHARLESTON SC
1200 PM EST SUN FEB 14 2016

...DOWNTOWN CHARLESTON AND HARBOR...

CITY           SKY/WX    TMP DP  RH WIND       PRES   REMARKS
WATERFRONT PRK   N/A     35  22  58 NE15      30.33F WCI  25

...LAKE MOULTRIE...

CITY           SKY/WX    TMP DP  RH WIND       PRES   REMARKS
PINOPOLIS        N/A     34   9  35 NE7       30.44R WCI  28

...LAKE AND SUPPLEMENTAL COASTAL OBSERVATIONS...

STATION/POSITION TIME  TEMP    WIND        PRES    WAVE   SWELL
                       AIR SEA DIR/SP/G            HT/PER HT/PER/DIR
                 (UTC) (F)     (DEG/KT/KT) (MB)    (FT/S) (FT/S/D)
FORT PULASKI     1700   39 50   40/ 19/ 24 1031.2F
SAPELO ISLAND    1700   46      30/ 15     1030.0R
WINYAH BAY       1600   29      60/ 15     1032.0F
LAKE MURRAY      1700   31      70/  7/ 12 1031.5F
ACE BASIN NERRS  1645   40      50/  5     1032.0S


...C-MAN AND BUOY OBSERVATIONS...

STATION/POSITION TIME  TEMP    WIND        PRES    WAVE   SWELL
                       AIR SEA DIR/SP/G            HT/PER HT/PER/DIR
                 (UTC) (F)     (DEG/KT/KT) (MB)    (FT/S) (FT/S/D)
BUOY 41004       1650   43 68   40/ 17/ 23 1030.5F   5/ 7   2/11
BUOY 41008       1650   47 53   40/ 21/ 25 1028.9R   7/ 7
FOLLY BEACH CMAN 1700   35      40/ 22/ 26 1032.4F
CAPERS NS BUOY   NOT AVBL
FRIPP NS BUOY    1600   40      60/ 23/ 27 1029.7R
5E ST. MARYS GA  1621      55                N/A     4/ 5


STATION/POSITION TIME  TEMP    WIND        PRES    WAVE   SWELL
                       AIR SEA DIR/SP/G            HT/PER HT/PER/DIR
                 (UTC) (F)     (DEG/KT/KT) (MB)    (FT/S) (FT/S/D)
FRYING PAN BUOY  1700   35 61   30/ 16/ 25 1033.0F
BUOY 41025       1650   29 71   10/ 17/ 23 1033.3R   5/ 8
CAPE LOOKOUT NC  1700   26     360/ 13/ 19 1033.8F
BUOY 41002       1650   48 67   30/ 12/ 17   N/A     9/11   8/ 20/11
BUOY 41010       1620   62 72              1026.3R
ST AUGUSTINE FL  1700   55 57  360/ 18/ 19 1027.4F

$$




USA.gov is the U.S. government's official web portal to all federal, state and local government web resources and services.